Location: Rounton
(54.4000°N, 1.3500°W)
Time: 04:01:45
(UTC+00:00)

S-56A Canister/Altair - Pass Details

Date: 04 December 2021
Orbit: 633 x 2499 km, 38.9° (Epoch: 17 January)

Event Time Altitude Azimuth Distance (km) Brightness Sun altitude
Rises 22:35:27 0° 203° (SSW) 5,387 - -54.6°
Reaches altitude 10° 22:41:32 10° 182° (S) 3,957 - -55.0°
Maximum altitude 22:46:00 14° 156° (SSE) 3,291 - -55.4°
Drops below altitude 10° 22:49:51 10° 128° (SE) 3,273 - -55.6°
Sets 22:53:57 0° 103° (ESE) 3,881 - -55.9°
